Linn Creek, MO

4:01 PM CST on February 06, 2016 (GMT -0600)
Camdenton

Weather History for KH21 - October, 2013

Change the Weather History Date:

Saturday, October 19, 2013

  Actual Average (KAIZ) Record (KAIZ)
Temperature  
Mean Temperature 45 °F -  
Max Temperature 55 °F 65 °F 84 °F (2003)
Min Temperature 35 °F 43 °F 30 °F (1999)
Degree Days  
Heating Degree Days 20    
Moisture  
Dew Point 36 °F    
Average Humidity 77    
Maximum Humidity 100    
Minimum Humidity 47    
Precipitation  
Precipitation 0.01 in - - ()
Sea Level Pressure  
Sea Level Pressure 30.03 in    
Wind  
Wind Speed 8 mph (SW)    
Max Wind Speed 13 mph    
Max Gust Speed 18 mph    
Visibility 10 miles    
Events Rain    
Averages and records for this station are not official NWS values.
T = Trace of Precipitation, MM = Missing Value Source: NWS Daily Summary

Daily Weather History Graph

Daily Weather History Graph

Search for Another Location

Airport or City:

Trip Planner

Search our weather history database for the weather conditions in past years. The results will help you decide how hot, cold, wet, or windy it might be!

Date:

Astronomy

Oct. 19, 2013 Rise Set
Actual Time 7:23 AM CDT 6:27 PM CDT
Civil Twilight 6:56 AM CDT 6:53 PM CDT
Nautical Twilight 6:26 AM CDT 7:24 PM CDT
Astronomical Twilight 5:55 AM CDT 7:54 PM CDT
Moon 6:56 PM CDT (10/19) 8:00 AM CDT (10/19)
Length of Visible Light 11h 57m
Length of Day
11h 03m
Waxing Gibbous, 99% of the Moon is Illuminated
Oct 19
Waxing Gibbous
Oct 26
Last Quarter
Nov 3
New
Nov 9
First Quarter
Nov 17
Full

Hourly Weather History & Observations

Time (CDT) Temp. Windchill Dew Point Humidity Pressure Visibility Wind Dir Wind Speed Gust Speed Precip Events Conditions
12:15 AM 39.2 °F 34.2 °F 37.4 °F 93% 30.06 in 7.0 mi West 6.9 mph - N/A Rain Light Rain
12:35 AM 39.2 °F 34.2 °F 37.4 °F 93% 30.06 in 10.0 mi WNW 6.9 mph - N/A Rain Light Rain
12:55 AM 39.2 °F 35.0 °F 37.4 °F 93% 30.06 in 7.0 mi West 5.8 mph - 0.01 in Rain Light Rain
1:15 AM 39.2 °F 34.2 °F 37.4 °F 93% 30.06 in 10.0 mi West 6.9 mph - N/A Rain Light Rain
1:35 AM 39.2 °F 33.0 °F 37.4 °F 93% 30.06 in 10.0 mi WNW 9.2 mph - N/A Rain Light Rain
1:55 AM 39.2 °F 34.2 °F 37.4 °F 93% 30.06 in 10.0 mi WNW 6.9 mph - N/A Rain Light Rain
2:15 AM 39.2 °F 34.2 °F 37.4 °F 93% 30.06 in 10.0 mi West 6.9 mph - N/A   Light Drizzle
2:35 AM 39.2 °F 35.0 °F 37.4 °F 93% 30.05 in 10.0 mi West 5.8 mph - N/A   Overcast
2:55 AM 39.2 °F 35.0 °F 37.4 °F 93% 30.06 in 10.0 mi West 5.8 mph - N/A   Overcast
3:15 AM 39.2 °F 35.0 °F 37.4 °F 93% 30.05 in 10.0 mi West 5.8 mph - N/A   Overcast
3:35 AM 37.4 °F 32.8 °F 37.4 °F 100% 30.05 in 10.0 mi West 5.8 mph - N/A   Overcast
3:55 AM 37.4 °F 30.8 °F 37.4 °F 100% 30.05 in 10.0 mi West 9.2 mph - N/A   Overcast
4:15 AM 37.4 °F 30.8 °F 37.4 °F 100% 30.05 in 10.0 mi West 9.2 mph - N/A   Overcast
4:35 AM 37.4 °F 31.4 °F 37.4 °F 100% 30.05 in 10.0 mi West 8.1 mph - N/A   Overcast
4:55 AM 37.4 °F 33.8 °F 37.4 °F 100% 30.05 in 10.0 mi WSW 4.6 mph - N/A   Overcast
5:15 AM 37.4 °F 34.9 °F 35.6 °F 93% 30.05 in 10.0 mi WSW 3.5 mph - N/A   Overcast
5:35 AM 37.4 °F 33.8 °F 35.6 °F 93% 30.05 in 10.0 mi WSW 4.6 mph - N/A   Overcast
5:55 AM 37.4 °F 32.8 °F 35.6 °F 93% 30.05 in 10.0 mi WSW 5.8 mph - N/A   Overcast
6:15 AM 35.6 °F 29.2 °F 35.6 °F 100% 30.06 in 10.0 mi WSW 8.1 mph - N/A   Overcast
6:35 AM 35.6 °F 28.0 °F 35.6 °F 100% 30.06 in 10.0 mi SW 10.4 mph - N/A   Overcast
6:55 AM 35.6 °F 29.2 °F 35.6 °F 100% 30.06 in 10.0 mi West 8.1 mph - N/A   Overcast
7:15 AM 35.6 °F 28.0 °F 35.6 °F 100% 30.07 in 10.0 mi WSW 10.4 mph - N/A   Overcast
7:35 AM 35.6 °F 28.6 °F 35.6 °F 100% 30.07 in 10.0 mi WSW 9.2 mph - N/A   Overcast
7:55 AM 35.6 °F 29.9 °F 35.6 °F 100% 30.07 in 10.0 mi WSW 6.9 mph - N/A   Overcast
8:15 AM 35.6 °F 28.6 °F 35.6 °F 100% 30.07 in 10.0 mi SW 9.2 mph - N/A   Overcast
8:35 AM 35.6 °F 29.2 °F 35.6 °F 100% 30.07 in 10.0 mi SW 8.1 mph - N/A   Overcast
8:55 AM 35.6 °F 30.7 °F 35.6 °F 100% 30.07 in 10.0 mi SSW 5.8 mph - N/A   Overcast
9:15 AM 37.4 °F 31.4 °F 35.6 °F 93% 30.08 in 10.0 mi WSW 8.1 mph - N/A   Overcast
9:35 AM 37.4 °F 30.8 °F 35.6 °F 93% 30.08 in 10.0 mi WSW 9.2 mph - N/A   Overcast
9:55 AM 37.4 °F 31.4 °F 35.6 °F 93% 30.08 in 10.0 mi WSW 8.1 mph - N/A   Overcast
10:15 AM 41.0 °F 34.7 °F 35.6 °F 81% 30.09 in 10.0 mi SW 10.4 mph - N/A   Overcast
10:35 AM 41.0 °F 34.7 °F 35.6 °F 81% 30.09 in 10.0 mi SW 10.4 mph - N/A   Mostly Cloudy
10:55 AM 42.8 °F 38.0 °F 35.6 °F 76% 30.08 in 10.0 mi SSW 8.1 mph - N/A   Scattered Clouds
11:15 AM 44.6 °F 40.2 °F 35.6 °F 71% 30.08 in 10.0 mi SW 8.1 mph - N/A   Scattered Clouds
11:35 AM 46.4 °F 41.5 °F 35.6 °F 66% 30.07 in 10.0 mi SW 10.4 mph - N/A   Clear
11:55 AM 46.4 °F 42.9 °F 37.4 °F 71% 30.07 in 10.0 mi SW 6.9 mph - N/A   Clear
1:55 PM 53.6 °F - 39.2 °F 58% 30.02 in 10.0 mi SSW 9.2 mph 17.3 mph N/A   Scattered Clouds
2:15 PM 53.6 °F - 37.4 °F 54% 30.02 in 10.0 mi West 9.2 mph 18.4 mph N/A   Scattered Clouds
2:35 PM 53.6 °F - 37.4 °F 54% 30.01 in 10.0 mi SSW 9.2 mph - N/A   Scattered Clouds
2:55 PM 53.6 °F - 37.4 °F 54% 30.01 in 10.0 mi SW 6.9 mph 16.1 mph N/A   Scattered Clouds
3:15 PM 55.4 °F - 35.6 °F 47% 30.01 in 10.0 mi SW 12.7 mph - N/A   Scattered Clouds
3:35 PM 55.4 °F - 35.6 °F 47% 30.00 in 10.0 mi SW 12.7 mph 18.4 mph N/A   Clear
3:55 PM 55.4 °F - 35.6 °F 47% 30.00 in 10.0 mi SW 11.5 mph - N/A   Clear
4:15 PM 55.4 °F - 35.6 °F 47% 30.00 in 10.0 mi SW 10.4 mph 16.1 mph N/A   Clear
4:35 PM 55.4 °F - 37.4 °F 51% 30.00 in 10.0 mi SW 11.5 mph - N/A   Clear
4:55 PM 55.4 °F - 35.6 °F 47% 29.99 in 10.0 mi SW 10.4 mph - N/A   Clear
5:15 PM 55.4 °F - 37.4 °F 51% 29.99 in 10.0 mi SW 8.1 mph - N/A   Clear
5:35 PM 53.6 °F - 35.6 °F 51% 29.99 in 10.0 mi SSW 9.2 mph - N/A   Clear
5:55 PM 53.6 °F - 37.4 °F 54% 29.99 in 10.0 mi SW 6.9 mph - N/A   Clear
6:15 PM 51.8 °F - 37.4 °F 58% 29.98 in 10.0 mi SSW 4.6 mph - N/A   Clear
6:35 PM 50.0 °F - 37.4 °F 62% 29.98 in 10.0 mi SSW 4.6 mph - N/A   Clear
6:55 PM 50.0 °F - 37.4 °F 62% 29.98 in 10.0 mi South 3.5 mph - N/A   Clear
7:15 PM 48.2 °F - 37.4 °F 66% 29.99 in 10.0 mi SSW 5.8 mph - N/A   Clear
7:35 PM 48.2 °F - 37.4 °F 66% 29.98 in 10.0 mi South 5.8 mph - N/A   Clear
7:55 PM 48.2 °F - 37.4 °F 66% 29.98 in 10.0 mi South 5.8 mph - N/A   Clear
8:15 PM 46.4 °F 43.5 °F 35.6 °F 66% 29.99 in 10.0 mi South 5.8 mph - N/A   Clear
8:35 PM 46.4 °F 43.5 °F 35.6 °F 66% 29.99 in 10.0 mi South 5.8 mph - N/A   Clear
8:55 PM 46.4 °F 43.5 °F 35.6 °F 66% 29.99 in 10.0 mi South 5.8 mph - N/A   Clear
9:15 PM 46.4 °F 43.5 °F 35.6 °F 66% 29.99 in 10.0 mi South 5.8 mph - N/A   Clear
9:35 PM 46.4 °F 41.9 °F 35.6 °F 66% 29.99 in 10.0 mi SSW 9.2 mph - N/A   Clear
9:55 PM 46.4 °F 41.9 °F 35.6 °F 66% 29.99 in 10.0 mi SSW 9.2 mph - N/A   Clear
10:15 PM 48.2 °F - 35.6 °F 62% 29.99 in 10.0 mi SSW 10.4 mph - N/A   Clear
10:35 PM 48.2 °F - 37.4 °F 66% 29.99 in 10.0 mi SSW 8.1 mph - N/A   Clear
10:55 PM 48.2 °F - 37.4 °F 66% 29.99 in 10.0 mi SSW 11.5 mph - N/A   Clear
11:15 PM 46.4 °F 41.1 °F 35.6 °F 66% 29.99 in 10.0 mi SSW 11.5 mph - N/A   Clear
11:35 PM 46.4 °F 41.9 °F 35.6 °F 66% 29.99 in 10.0 mi SSW 9.2 mph - N/A   Clear
11:55 PM 46.4 °F 41.5 °F 35.6 °F 66% 29.99 in 10.0 mi SSW 10.4 mph - N/A   Clear